TimeMST,TemperatureF,Dew PointF,Humidity,Sea Level PressureIn,VisibilityMPH,Wind Direction,Wind SpeedMPH,Gust SpeedMPH,PrecipitationIn,Events,Conditions,WindDirDegrees,DateUTC
12:53 AM,43.0,34.0,71,30.24,10.0,South,8.1,-,N/A,,Unknown,170,2012-11-05 07:53:00
1:53 AM,42.1,33.1,70,30.22,10.0,SW,6.9,-,N/A,,Unknown,220,2012-11-05 08:53:00
2:53 AM,39.9,32.0,73,30.20,10.0,SSW,3.5,-,N/A,,Unknown,210,2012-11-05 09:53:00
3:53 AM,42.1,32.0,67,30.17,10.0,Calm,Calm,-,N/A,,Unknown,0,2012-11-05 10:53:00
5:53 AM,42.1,32.0,67,30.14,10.0,SSW,5.8,-,N/A,,Unknown,210,2012-11-05 12:53:00
6:53 AM,43.0,30.9,62,30.12,10.0,South,10.4,-,N/A,,Unknown,190,2012-11-05 13:53:00
7:53 AM,45.0,32.0,60,30.13,10.0,SSW,3.5,-,N/A,,Unknown,210,2012-11-05 14:53:00
8:53 AM,48.0,34.0,58,30.11,10.0,SSW,5.8,-,N/A,,Unknown,200,2012-11-05 15:53:00
9:53 AM,55.9,34.0,44,30.08,10.0,South,3.5,-,N/A,,Clear,180,2012-11-05 16:53:00
10:53 AM,59.0,36.0,42,30.05,10.0,Calm,Calm,-,N/A,,Clear,0,2012-11-05 17:53:00
11:53 AM,61.0,34.0,36,30.00,10.0,ESE,3.5,-,N/A,,Clear,120,2012-11-05 18:53:00
12:53 PM,63.0,33.1,33,29.98,10.0,Calm,Calm,-,N/A,,Clear,0,2012-11-05 19:53:00
1:53 PM,64.0,33.1,31,29.97,10.0,Calm,Calm,-,N/A,,Clear,0,2012-11-05 20:53:00
2:53 PM,63.0,34.0,34,30.00,10.0,Calm,Calm,-,N/A,,Clear,0,2012-11-05 21:53:00
3:53 PM,57.0,36.0,45,30.02,10.0,WSW,5.8,-,N/A,,Clear,250,2012-11-05 22:53:00
4:53 PM,57.0,34.0,42,30.03,10.0,Calm,Calm,-,N/A,,Clear,0,2012-11-05 23:53:00
5:53 PM,53.1,30.0,41,30.04,10.0,NNW,6.9,-,N/A,,Clear,340,2012-11-06 00:53:00
6:53 PM,50.0,28.9,44,30.05,10.0,SW,4.6,-,N/A,,Clear,230,2012-11-06 01:53:00
7:53 PM,55.0,28.0,35,30.05,10.0,Variable,6.9,-,N/A,,Clear,0,2012-11-06 02:53:00
8:53 PM,48.0,28.9,48,30.10,10.0,ESE,4.6,-,N/A,,Partly Cloudy,110,2012-11-06 03:53:00
9:53 PM,52.0,30.9,45,30.08,10.0,NNW,15.0,24.2,N/A,,Clear,330,2012-11-06 04:53:00
10:53 PM,45.0,33.1,63,30.12,10.0,Calm,Calm,-,N/A,,Clear,0,2012-11-06 05:53:00
11:53 PM,43.0,34.0,71,30.14,10.0,West,4.6,-,N/A,,Clear,270,2012-11-06 06:53:00